Location: Arpaise
(41.0333°N, 14.7333°E)
Time: 01:39:27
(UTC+00:00)

Atlas Centaur 2 - Pass Details

Date: 05 July 2020
Orbit: 459 x 1310 km, 30.4° (Epoch: 11 August)

Event Time Altitude Azimuth Distance (km) Brightness Sun altitude
Rises 22:17:00 0° 260° (W) 3,620 5.5 -25.3°
Reaches altitude 10° 22:19:57 10° 247° (WSW) 2,813 4.8 -25.4°
Enters shadow 22:21:25 15° 238° (WSW) 2,494 4.4 -25.5°
